星链-36053(STARLINK-36053)

导读

STARLINK-36053是美国SpaceX公司星链(Starlink)卫星互联网项目的低轨通信卫星,于2025年12月2日发射。它运行于近地轨道,依托星链星座的激光通信与先进推进技术,旨在为全球尤其是偏远地区提供高速低延迟宽带服务,是星链持续扩展全球覆盖、完善互联网接入能力的重要组成部分。

Basic Information
目录编号:
66875
目录名称:
STARLINK-36053
国际标识:
2025-281AD
轨道中心:
EARTH
卫星名称:
星链-36053
卫星全名:
星链-36053(STARLINK-36053)
卫星状态:
在轨 (已飞行276 天)
发射日期:
2025-12-02 UTC
国别 :
美国 (US)
星等 :
--
Orbit Information
数据来源 国际轨道数据
星历时间: 2026-09-03T18:53:27+0800
1天前
查看轨道信息
半长轴: 6861.288km
偏心率: 0.0002088
轨道倾角: 43.004°
近地点辐角 253.338°
升交点赤经 59.420°
平近点角 106.724°
近地点: 481.718km
远地点: 484.584km
周期: 94.269分钟
每日圈数: 15.27546
Detailed Information
固有亮度:
5
最大亮度:
2.5
卫星平台:
Starlink V1.0
覆盖范围:
全球
运营商:
太空探索技术公司
运营商所在国:
美国
制造商(研发单位):
太空探索技术公司
制造商所在国:
美国
使用方式:
暂无
Satellite Introduction
Starlink 计划是 SpaceX 推出的全球卫星互联网项目,通过发射低轨道卫星,为全球尤其是偏远地区提供高速、低延迟的互联网服务。自 2019 年起,Starlink 已部署数千颗卫星,旨在缩小全球数字鸿沟,推动互联网普及。该项目还为军事、航空等行业提供通信支持,带来广泛经济效益。
2D Orbit Map
3D Orbit Map
Orbit Altitude Analysis Chart
Orbit Inclination Analysis Chart
Orbit Comprehensive Analysis Chart
View Comprehensive Chart
Conjunction Data List
Event ID Objects TCA Miss Dist (km) Collision Risk Probability Collision Risk Index (CRI) Action
CDM_260905-210205-731006-687521
2026-09-05T
21:02:51+0000
0.561 km
远距离
1.225693E-4 高风险 0.77
CDM_260906-001105-777306-687521
2026-09-06T
00:11:42+0000
0.616 km
远距离
9.467997E-5 中风险 0.75
CDM_260905-155905-968906-687521
2026-09-05T
15:59:11+0000
0.716 km
远距离
4.559611E-5 中风险 0.68
CDM_260906-115705-777306-687521
2026-09-06T
11:57:54+0000
0.808 km
远距离
4.194187E-5 中风险 0.67
CDM_260906-032105-628806-687521
2026-09-06T
03:21:52+0000
0.934 km
远距离
2.529324E-5 中风险 0.63
CDM_260906-001406-632506-687521
2026-09-06T
00:14:10+0000
0.934 km
远距离
2.50303E-5 中风险 0.63
CDM_260905-063205-966406-687521
2026-09-05T
06:32:11+0000
0.963 km
远距离
1.457463E-5 中风险 0.58
CDM_260905-120105-966406-687521
2026-09-05T
12:01:44+0000
0.980 km
远距离
1.369659E-5 中风险 0.58
CDM_260906-085206-632506-687521
2026-09-06T
08:52:02+0000
1.189 km
极远距离
1.083127E-5 中风险 0.56
CDM_260906-084905-731006-687521
2026-09-06T
08:49:03+0000
1.336 km
极远距离
7.55817E-6 低风险 0.53